Regional Weather Roundup
Issued by NWS

Home | Current Version | Previous Version | Graphics & Text | Print | Product List | Glossary On
Versions: 1 2 3 4 5 6 7 8 9 10 11 12 13 14 15 16 17 18 19 20 21 22 23 24 25 26 27 28 29 30 31 32 33 34 35 36 37 38 39 40 41 42 43 44 45 46 47 48 49 50
922
ASUS44 KMEG 272310
RWRTN
TENNESSEE HOURLY STATE WEATHER ROUNDUP
NATIONAL WEATHER SERVICE MEMPHIS TN
600 PM CDT WED JUL 27 2016

TNZ002-004-019-021-049-052-054-088>092-280000-
WEST TENNESSEE

CITY           SKY/WX    TMP DP  RH WIND       PRES   REMARKS
MEMPHIS INTL   TSTM      78  74  87 SW12      29.90R FOG
NWS MEMPHIS      N/A     81 N/A N/A MISG        N/A
JACKSON        MOSUNNY   88  73  61 S8        29.88F HX  95
DYERSBURG      CLOUDY   N/A N/A N/A MISG        N/A  THUNDER
UNION CITY     SUNNY     88  77  70 SW3       29.87S HX 100
PARIS          MOSUNNY   81  79  94 CALM      29.90S
LEXINGTON      PTSUNNY   90  73  58 VRB7      29.89F HX  98
$$

TNZ008-025-027-028-033-062-065-066-280000-
NORTH MIDDLE TENNESSEE

CITY           SKY/WX    TMP DP  RH WIND       PRES   REMARKS
NASHVILLE      MOSUNNY   91  69  48 S12       29.89F HX  96
CLARKSVILLE    PTSUNNY   83  77  82 CALM      29.88F HX  92
SMYRNA         SUNNY     93  72  50 SW13      29.89F HX 100
COOKEVILLE     SUNNY     90  77  66 CALM      29.93F HX 102
CROSSVILLE     PTSUNNY   81  74  79 VRB3      30.01F
$$

TNZ061-075-076-078-094-096-097-280000-
SOUTH MIDDLE TENNESSEE

CITY           SKY/WX    TMP DP  RH WIND       PRES   REMARKS
FAYETTEVILLE   SUNNY     90  70  51 S12G17    29.96F HX  95
TULLAHOMA      SUNNY     88  70  55 S10       29.97F HX  92
WINCHESTER     SUNNY     91  70  49 S9        29.97F HX  97
MCMINNVILLE    SUNNY     91  75  59 SW10      29.94F HX 102
COLUMBIA       SUNNY     93  73  52 S12       29.90F HX 102
SHELBYVILLE    SUNNY     91  75  59 S13       29.94F HX 102
$$

TNZ017-018-042-046-047-280000-
NORTHEAST TENNESSEE

CITY           SKY/WX    TMP DP  RH WIND       PRES   REMARKS
TRI CITIES     CLOUDY    82  72  71 VRB5      29.98R THUNDER
ELIZABETHTON   CLOUDY    90  70  51 SE7       29.97S HX  95
$$

TNZ012-013-036-069-073-074-280000-
CENTRAL EAST TENNESSEE

CITY           SKY/WX    TMP DP  RH WIND       PRES   REMARKS
KNOXVILLE      PTSUNNY   90  70  51 S12       29.94F HX  95
OAK RIDGE      MOSUNNY   92  68  45 VRB3      29.95F HX  96
GATLINBURG     SUNNY     90  70  51 SW7       29.95S HX  95
MORRISTOWN     SUNNY     95  66  38 W12       29.95S HX  98
$$

TNZ083-085-099-280000-
SOUTHEAST TENNESSEE

CITY           SKY/WX    TMP DP  RH WIND       PRES   REMARKS
CHATTANOOGA    MOSUNNY   93  68  43 SW14      29.96S HX  97
$$

SKY/WX REPORTED AS FAIR MEANS FEW OR NO CLOUDS BELOW
12 THOUSAND FEET.





USA.gov is the U.S. government's official web portal to all federal, state and local government web resources and services.